{"data":{"norad_id":68432,"intl_designator":"2026-067S","name":"NUSAT-53 (JANE GOODALL)","alt_names":[],"object_type":"PAYLOAD","status":"ACTIVE","operator":null,"country":"ARGN","launch_date":"2026-03-30","launch_site_code":"AFWTR","launch_vehicle":null,"mission":null,"orbit_class":"UNKNOWN","rcs_meters":null,"size_class":null,"mass_kg":null,"dimensions":null,"purposes":[],"wikipedia_slug":null,"has_3d_model":false,"image_url":null,"decayed_at":null,"tle_current":{"epoch":"2026-09-20T03:03:23.868576Z","epoch_age_seconds":101352,"freshness":"FRESH","line1":"1 68432U 26067S   26263.12735959  .00003631  00000+0  17513-3 0  9996","line2":"2 68432  97.4662 220.4246 0004378  65.8433 294.3259 15.19323715 26357","mean_motion":15.19323715,"eccentricity":0.0004378,"inclination_deg":97.4662,"raan_deg":220.4246,"arg_perigee_deg":65.8433,"mean_anomaly_deg":294.3259,"bstar":0.00017513,"rev_number":2635,"period_min":94.779011594642,"perigee_km":504.86857091664,"apogee_km":510.89797026557,"semimajor_km":6886.0202705911,"source":"CELESTRAK","updated_at":"2026-09-20T09:00:24.202467Z"}}}